Location: Gudip?du
(17.0263°N, 80.8301°E)
Time: 01:20:04
(UTC+00:00)

Cosmos 1269 Rocket - Pass Details

Date: 03 August 2024
Orbit: 770 x 776 km, 74.1° (Epoch: 12 September)

Event Time Altitude Azimuth Distance (km) Brightness Sun altitude
Rises 14:21:46 0° 353° (N) 3,248 7.7 -17.2°
Reaches altitude 10° 14:24:12 10° 357° (N) 2,319 6.8 -17.7°
Maximum altitude 14:29:22 56° 76° (ENE) 913 4.1 -18.8°
Enters shadow 14:31:23 35° 136° (SE) 1,239 4.6 -19.2°
